Погода в Баргузине

Погода в Баргузине : погода сейчас, прогноз погоды и архив. Всё, что Вы хотите узнать о погоде в Баргузине!

Поиск расширенной информации на нашем сайте:

Другие новости

Новости СМИ2

Главная страница сайта

Новости сайта

03.07.2017

Напоминаем, что на нашем специализированном сайте Метеоцентр.Азия вы можете получить высокодетализированные автоматические прогнозы погоды по пунктам России, СНГ и мира в авиационном формате (включающие направление и скорость ветра, видимость, явления погоды, количество и форму облачности, нижнюю и верхнюю границу облачности).

Рекомендуем: Продам сайт smssend.

Погода в Баргузине - сегодня

Время (UTC), дата Ветер
(°,м/с) 
Видим.   Явления Облачность Т
(°С)
Тd
(°С)
f(%) Тe
(°С)
Pmin
(гПа)
dP
(гПа)
Po
(мм)
O2
(г/м3)
Тmin Tmax R s Состояние
почвы
03 24.07.17 090 (В) 20000 м    3/1 600 м верхняя 
[Cu hum|Ci fib]
+22.3 +6.8 37 +22  1011.2  -1.8  717  266           
06 24.07.17 080 (В) 20000 м    10/1 600 м верхняя 
[Cu hum|Ci fib]
+26.9 +4.6 24 +27  1007.9  -2.4  715  262           
09 24.07.17 110 (В) 20000 м    10/0 средняя, верхняя 
[Ac trans|Ci]
+26.4 +7.9 31 +26  1006.2  -1.6  714  261           
12 24.07.17 тихо ()   20000 м    10/0 средняя, верхняя 
[Ac trans|Ci fib]
+22.3 +10 46 +24  1006.9  714  264    +27.6       
15 24.07.17 270 (З) н/о    6/0 средняя, верхняя 
[Ac trans|Ci fib]
+17.3 +7.9 54 +18  1008.8  0.8  715  269           
18 24.07.17 220 (ЮЗ) н/о    3/0 верхняя 
[Ci fib]
+12.7 +7.7 72 +14  1009.4  -0.3  714  274           
21 24.07.17 тихо ()   20000 м    6/0 средняя 
[Ac trans]
+9.8 +6.9 82 +10  1010.3  0.3  715  277           
00 25.07.17 090 (В) 20000 м    10/0 средняя, верхняя 
[Ac trans|Ci fib]
+17.6 +7.2 50 +19  1008.6  -0.1  715  269  +9.7        сухая 
03 25.07.17 100 (В) 20000 м    10/0 средняя, верхняя 
[Ac trans|Ci fib]
+22.3 +8.5 41 +23  1006.2  -1.4  714  264           
06 25.07.17 080 (В) 20000 м    10/3 1000 м кучево-дожд., средняя 
[Cb cap|Ac trans]
+25.5 +7.3 31 +26  1003.7  -1.9  712  261           
09 25.07.17 090 (В) 20000 м    8/0 средняя 
[Ac trans]
+27.5 +7.1 27 +28  1001.6  -1.6  711  259           
12 25.07.17 260 (З) 20000 м    10/8 1000 м средняя, верхняя 
[Sc|Ac trans|Ci fib]
+18.6 +8.6 52 +20  1004.5  1.2  712  267    +27.7       
15 25.07.17 270 (З) н/о    4/3 1000 м верхняя 
[Sc|Ci fib]
+16.1 +9.5 65 +19  1006.2  1.2  713  269           
18 25.07.17 270 (З) н/о    6/3 1000 м верхняя 
[Sc|Ci fib]
+15.3 +10.5 73 +19  1007.2  0.8  713  270           
21 25.07.17 260 (З) 20000 м    8/6 1000 м средняя 
[Sc|Ac trans]
+13.7 +10.5 81 +18  1007.7  0.2  713  272           
00 26.07.17 250 (З) 20000 м    1/0 средняя 
[Ac trans]
+17.7 +11.4 67 +23  1007.3  0.4  714  268  +13.6        сухая 
03 26.07.17 250 (З) 20000 м    ясно 
+23.2 +10.8 46 +26  1006.4  -0.9  713  263           
06 26.07.17 270 (З) 20000 м    3/3 600 м кучево-дожд. 
[Cb cap]
+27.8 +10.8 35 +31  1003.3  -2.1  712  258           
09 26.07.17 220 (ЮЗ) 20000 м    3/1 1000 м кучево-дожд., верхняя 
[Cb cap|Ci fib]
+27.6 +7.3 28 +28  1002.5  0.1  712  259           
12 26.07.17 260 (З) 20000 м    8/0 средняя, верхняя 
[Ac trans|Ci fib]
+24.4 +6.2 31 +24  1004.5  0.4  712  262    +27.8       
15 26.07.17 280 (З) н/о    3/0 верхняя 
[Ci fib]
+16.9 +10.2 65 +20  1007.5  2.5  714  269           
18 26.07.17 200 (Ю) н/о    ясно 
+12.8 +9.9 83 +16  1009.2  0.8  714  273           
21 26.07.17 240 (ЮЗ) 20000 м    ясно 
+9.5 +8.2 92 +11  1010.6  0.6  715  277           
00 27.07.17 070 (В) 20000 м    6/0 верхняя 
[Ci fib]
+16.9 +10.1 64 +20  1009.7  0.7  715  270  +9.4        сухая 
03 27.07.17 090 (В) 20000 м    8/3 600 м кучево-дожд., верхняя 
[Cb cap|Ci fib]
+24.2 +10 41 +26  1007.4  -1  715  263           
Время (UTC), дата Ветер
(°,м/с) 
Видим.   Явления Облачность Т
(°С)
Тd
(°С)
f(%) Тe
(°С)
Pmin
(гПа)
dP
(гПа)
Po
(мм)
O2
(г/м3)
Тmin Tmax R s Состояние
почвы

Для получения пояснительной информации подведите курсор к названию столбца.

ПОГОДА в Баргузине - архив

Всё, что Вы хотите узнать о погоде в Баргузине - удобно и подробно!

Выберите нужную дату (начиная с 1 января 2015* года) и нажмите кнопку "Найти".
Будут отображены архивные сводки погоды по пункту Баргузин, начиная с указанной даты.


Отображать данные в формате CSV (для использования в таблицах Excel)


Внимание! Наш архив погоды предназначен исключительно для личного некоммерческого использования в познавательных целях. Если Вам необходимы официальные справки о состоянии погоды (для производственных, юридических, коммерческих и т.п. целей), обращайтесь в органы Росгидромета.

*Примечание: данная дата относится к архиву по метеостанциям СССР (Россия, СНГ, Балтия).
Архив по метеостанциям Зарубежной Европы и Азии (кроме Китая) хранится 10 дней, по другим регионам земного шара (Китай, Африка, Америка, Австралия, Океания) - 1 день.

Баргузин - район местоположения метеостанции


Название, широта, долгота, высота метеостанции:
Баргузин 53.6°ш. 109.6°д. 489 м над ур. моря [Российская Федерация]

Дополнительная информация

В oтличие oт бoльшинства пoгoдных сайтoв мы публикуем пoдрoбную метеoинфoрмацию в детальнoм прoфессиoнальнoм фoрмате.

Характеристики температуры и влажнoсти вoздуха измеряются на высoте 2 м в тени вдали oт зданий и деревьев.
Скoрoсть ветра измеряется на высoте 10 м (на урoвне рoста челoвека скoрoсть ветра ниже в 1.5-2 раза). Если метеoстанция нахoдится в гoрoде или в лесу, тo скoрoсть ветра занижена на 2-4 м/с пo сравнению с oткрытым местoм. Скoрoсть ветра над акватoриями крупных рек и oзёр, а также на вершинах хoлмoв на 2-5 м/с выше, чем в oбычных услoвиях.
Атмoсфернoе давление в разных тoчках местнoсти мoжет значительнo oтличаться oт давления на метеoстанции, в зависимoсти oт услoвий рельефа (при пoдъёме на 10 м давление пoнижается примернo на 1 мм рт.ст.).